SWA1605 KBWI-MMUN

Flight info

Callsign SWA1605
Flight time N/A
Altitude 34000
Route CONLE5 SCOOB DCT EARZZ Q131 WAALT Y289 BAHAA DCT HIBAC DCT PHK DCT SWAGS DCT LULLS DCT CANOA UB879 NOSAT NOSAT1B
Aircraft B737/M-SADE2E3GIJ4J7RWZ/LB1D1

Departure

Time 2026-05-04 07:38
Airport Baltimore/Washington International Thurgood Marshall Airport (KBWI)

Arrival

Time N/A
Airport Cancún International Airport (MMUN)
Time Latitude Longitude Altitude Speed Heading
2026-05-04 07:26 39.17797 -76.67003 155 ft 1 kts 233°
2026-05-04 07:27 39.17804 -76.66992 155 ft 4 kts 241°
2026-05-04 07:27 39.17812 -76.66960 155 ft 4 kts 267°
2026-05-04 07:27 39.17812 -76.66926 155 ft 4 kts 257°
2026-05-04 07:27 39.17804 -76.66911 155 ft 3 kts 151°
2026-05-04 07:28 39.17803 -76.66909 155 ft 1 kts 144°
2026-05-04 07:33 39.17535 -76.66765 155 ft 10 kts 140°
2026-05-04 07:33 39.17523 -76.66668 154 ft 12 kts 91°
2026-05-04 07:33 39.17531 -76.66567 153 ft 11 kts 61°
2026-05-04 07:33 39.17573 -76.66482 153 ft 12 kts 88°
2026-05-04 07:34 39.17528 -76.66380 151 ft 15 kts 122°
2026-05-04 07:34 39.17466 -76.66253 148 ft 18 kts 118°
2026-05-04 07:34 39.17450 -76.66088 148 ft 19 kts 94°
2026-05-04 07:34 39.17439 -76.65909 145 ft 20 kts 94°
2026-05-04 07:35 39.17428 -76.65728 141 ft 20 kts 95°
2026-05-04 07:35 39.17410 -76.65553 141 ft 20 kts 125°
2026-05-04 07:35 39.17291 -76.65543 140 ft 17 kts 230°
2026-05-04 07:35 39.17289 -76.65715 141 ft 35 kts 274°
2026-05-04 07:36 39.17324 -76.66372 150 ft 108 kts 273°
2026-05-04 07:36 39.17373 -76.67619 168 ft 168 kts 270°
2026-05-04 07:38 39.13050 -76.74895 5294 ft 265 kts 147°
2026-05-04 07:38 39.11598 -76.73380 6244 ft 273 kts 143°
2026-05-04 07:38 39.10146 -76.71778 6772 ft 274 kts 143°
2026-05-04 07:38 39.08664 -76.70203 7023 ft 280 kts 145°
2026-05-04 07:39 39.07131 -76.68635 7012 ft 280 kts 146°
2026-05-04 07:39 39.05598 -76.67094 7023 ft 280 kts 146°
2026-05-04 07:39 39.04063 -76.65551 7021 ft 280 kts 143°
2026-05-04 07:39 39.02683 -76.63743 7180 ft 287 kts 134°
2026-05-04 07:40 39.01398 -76.61755 8091 ft 290 kts 133°
2026-05-04 07:40 39.00114 -76.59739 9118 ft 293 kts 133°
2026-05-04 07:40 38.98796 -76.57708 10066 ft 299 kts 134°
2026-05-04 07:40 38.97418 -76.55618 10642 ft 318 kts 134°
2026-05-04 07:41 38.95915 -76.53363 10845 ft 346 kts 134°
2026-05-04 07:41 38.94193 -76.51061 11095 ft 366 kts 147°
2026-05-04 07:41 38.91912 -76.49630 11731 ft 366 kts 170°
2026-05-04 07:41 38.89406 -76.49386 12549 ft 360 kts 192°
2026-05-04 07:42 38.86988 -76.49991 13412 ft 361 kts 197°
2026-05-04 07:42 38.84528 -76.50742 13878 ft 364 kts 200°
2026-05-04 07:42 38.82131 -76.51779 13993 ft 364 kts 206°
2026-05-04 07:42 38.79761 -76.53009 14003 ft 361 kts 207°
2026-05-04 07:43 38.77473 -76.54224 14010 ft 361 kts 207°
2026-05-04 07:43 38.75142 -76.55429 14016 ft 362 kts 207°
2026-05-04 07:43 38.72764 -76.56618 14014 ft 362 kts 206°
2026-05-04 07:43 38.70410 -76.57776 14020 ft 363 kts 206°
2026-05-04 07:44 38.68073 -76.58910 14051 ft 367 kts 206°
2026-05-04 07:44 38.65627 -76.60051 14726 ft 370 kts 205°
2026-05-04 07:44 38.63240 -76.61145 15631 ft 369 kts 205°
2026-05-04 07:44 38.60816 -76.62257 16410 ft 373 kts 206°
2026-05-04 07:45 38.58361 -76.63386 17123 ft 377 kts 206°
2026-05-04 07:45 38.55876 -76.64532 17841 ft 382 kts 206°
2026-05-04 07:45 38.53364 -76.65691 18528 ft 386 kts 206°
2026-05-04 07:45 38.50829 -76.66859 19187 ft 388 kts 206°
2026-05-04 07:46 38.48303 -76.68022 19872 ft 389 kts 206°
2026-05-04 07:46 38.45747 -76.69199 20550 ft 391 kts 207°
2026-05-04 07:46 38.43177 -76.70381 21187 ft 394 kts 207°
2026-05-04 07:46 38.40469 -76.71200 21769 ft 412 kts 192°
2026-05-04 07:47 38.37546 -76.71026 22396 ft 426 kts 181°
2026-05-04 07:47 38.34586 -76.70534 22974 ft 431 kts 181°
2026-05-04 07:47 38.31604 -76.69996 23473 ft 436 kts 181°
2026-05-04 07:49 38.10268 -76.66464 26684 ft 450 kts 182°
2026-05-04 07:49 38.07153 -76.66093 26975 ft 451 kts 185°
2026-05-04 07:49 38.04023 -76.65867 27384 ft 450 kts 186°
2026-05-04 07:50 38.00896 -76.65695 27841 ft 450 kts 186°
2026-05-04 07:50 37.97776 -76.65531 28264 ft 450 kts 186°
2026-05-04 07:50 37.94647 -76.65353 28789 ft 448 kts 186°
2026-05-04 07:50 37.91544 -76.65160 29457 ft 444 kts 186°
2026-05-04 07:51 37.88480 -76.64958 30165 ft 438 kts 186°
2026-05-04 07:51 37.85452 -76.64754 30705 ft 434 kts 186°
2026-05-04 07:51 37.82441 -76.64551 31139 ft 433 kts 186°
2026-05-04 07:51 37.79432 -76.64351 31535 ft 432 kts 186°
2026-05-04 07:52 37.76434 -76.64150 31974 ft 430 kts 186°
2026-05-04 07:52 37.73451 -76.63950 32432 ft 428 kts 186°
2026-05-04 07:52 37.70486 -76.63751 32888 ft 425 kts 186°
2026-05-04 07:52 37.67538 -76.63554 33302 ft 424 kts 186°
2026-05-04 07:53 37.64596 -76.63359 33685 ft 423 kts 187°